カタログに戻る

STARLINK-36546

運用中通信VLEO
NORAD 67459·PAYLOAD·🇺🇸 United States

打ち上げ Jan 14, 2026 から Cape Canaveral Space Force Station

Loading…

次のパス (今後24時間)

TLE

最新Source: CelesTrak SupGP

元期: Sep 14, 2026, 21:46 UTC

1 67459C 26008Q   26257.90743056  .00022083  00000+0  79982-3 0  2572
2 67459  43.0016 217.0039 0001330 263.1625 189.3846 15.27568844    11

AllMySatでSTARLINK-36546をリアルタイム追跡

Download on the App Store